| time (UTC) | temp F | wind direction | speed MPH | gust MPH | rain 1hr in | rain 24hr in | rain mn in | humidity % | barometer mb |
| 20260831224551 | 73 | 342 | 3.0 | 9.0 | 0.00 | 0.02 | 0.01 | 61 | 1012.2 |
| 20260831223050 | 73 | 9 | 4.0 | 8.0 | 0.00 | 0.02 | 0.01 | 62 | 1012.1 |
| 20260831221548 | 72 | 347 | 3.0 | 8.0 | 0.00 | 0.02 | 0.01 | 63 | 1012.2 |
| 20260831220048 | 73 | 337 | 4.0 | 8.0 | 0.00 | 0.02 | 0.01 | 62 | 1012.7 |
| 20260831214617 | 73 | 330 | 1.0 | 4.0 | 0.00 | 0.26 | 0.01 | 62 | 1012.8 |
| 20260831213026 | 72 | 350 | 3.0 | 5.0 | 0.00 | 0.26 | 0.01 | 61 | 1012.6 |
| 20260831211516 | 73 | 326 | 1.0 | 4.0 | 0.00 | 0.26 | 0.01 | 63 | 1012.8 |
| 20260831210028 | 72 | 74 | 1.0 | 5.0 | 0.00 | 0.26 | 0.01 | 64 | 1013.1 |
| 20260831204514 | 71 | 82 | 2.0 | 4.0 | 0.00 | 0.26 | 0.01 | 64 | 1013.5 |
| 20260831203024 | 71 | 74 | 2.0 | 8.0 | 0.00 | 0.26 | 0.01 | 67 | 1013.6 |
| 20260831201530 | 71 | 104 | 4.0 | 9.0 | 0.00 | 0.26 | 0.01 | 69 | 1013.6 |
| 20260831200036 | 70 | 63 | 5.0 | 9.0 | 0.00 | 0.26 | 0.01 | 68 | 1013.8 |
| 20260831194522 | 71 | 51 | 3.0 | 6.0 | 0.00 | 0.26 | 0.01 | 68 | 1014.1 |
| 20260831193021 | 71 | 109 | 4.0 | 9.0 | 0.00 | 0.26 | 0.01 | 68 | 1014.5 |
| 20260831191524 | 71 | 136 | 0.0 | 3.0 | 0.00 | 0.26 | 0.01 | 70 | 1015.1 |
| 20260831190021 | 70 | 136 | 0.0 | 3.0 | 0.00 | 0.26 | 0.01 | 68 | 1015.5 |
| 20260831184519 | 69 | 142 | 0.0 | 4.0 | 0.00 | 0.26 | 0.01 | 71 | 1015.8 |
| 20260831183012 | 69 | 170 | 0.0 | 3.0 | 0.00 | 0.26 | 0.01 | 71 | 1016.2 |
| 20260831181511 | 68 | 170 | 0.0 | 4.0 | 0.00 | 0.26 | 0.01 | 71 | 1016.3 |
| 20260831180006 | 67 | 175 | 0.0 | 1.0 | 0.00 | 0.26 | 0.01 | 75 | 1016.3 |
| 20260831174505 | 67 | 175 | 0.0 | 1.0 | 0.00 | 0.26 | 0.01 | 75 | 1016.3 |
| 20260831173003 | 66 | 175 | 0.0 | 0.0 | 0.00 | 0.26 | 0.01 | 78 | 1016.2 |
| 20260831171559 | 66 | 175 | 0.0 | 2.0 | 0.00 | 0.26 | 0.01 | 81 | 1015.9 |
| 20260831170056 | 65 | 175 | 1.0 | 5.0 | 0.00 | 0.26 | 0.01 | 81 | 1015.6 |
| 20260831164604 | 64 | 93 | 0.0 | 3.0 | 0.00 | 0.26 | 0.01 | 83 | 1015.4 |
| 20260831163050 | 63 | 88 | 0.0 | 3.0 | 0.00 | 0.26 | 0.01 | 84 | 1015.1 |
| 20260831161549 | 62 | 85 | 0.0 | 2.0 | 0.00 | 0.26 | 0.01 | 86 | 1014.8 |
| 20260831160047 | 62 | 84 | 0.0 | 2.0 | 0.00 | 0.26 | 0.01 | 88 | 1014.6 |
| 20260831154545 | 61 | 78 | 0.0 | 1.0 | 0.00 | 0.30 | 0.01 | 90 | 1014.3 |
| 20260831153043 | 60 | 77 | 0.0 | 0.0 | 0.00 | 0.30 | 0.01 | 91 | 1014.1 |
| 20260831151540 | 60 | 77 | 0.0 | 0.0 | 0.00 | 0.30 | 0.01 | 91 | 1013.7 |
| 20260831150033 | 59 | 77 | 0.0 | 1.0 | 0.00 | 0.30 | 0.01 | 91 | 1013.4 |
| 20260831144533 | 59 | 77 | 1.0 | 3.0 | 0.00 | 0.30 | 0.01 | 91 | 1013.2 |
| 20260831141528 | 59 | 78 | 0.0 | 2.0 | 0.00 | 0.30 | 0.01 | 91 | 1013.1 |
| 20260831140105 | 59 | 79 | 0.0 | 1.0 | 0.00 | 0.30 | 0.01 | 91 | 1013.1 |
| 20260831134514 | 59 | 79 | 0.0 | 0.0 | 0.00 | 0.30 | 0.01 | 91 | 1012.9 |
| 20260831133029 | 59 | 79 | 0.0 | 1.0 | 0.00 | 0.30 | 0.01 | 91 | 1012.9 |
| 20260831131520 | 59 | 79 | 0.0 | 2.0 | 0.00 | 0.30 | 0.01 | 91 | 1012.6 |
| 20260831130011 | 59 | 79 | 0.0 | 0.0 | 0.01 | 0.30 | 0.01 | 91 | 1012.2 |
| 20260831124505 | 59 | 79 | 0.0 | 2.0 | 0.01 | 0.46 | 0.01 | 91 | 1012.0 |
| 20260831123004 | 58 | 51 | 0.0 | 0.0 | 0.01 | 0.46 | 0.01 | 91 | 1011.9 |
| 20260831121504 | 58 | 51 | 0.0 | 1.0 | 0.01 | 0.46 | 0.01 | 91 | 1011.7 |
| 20260831120003 | 58 | 50 | 0.0 | 1.0 | 0.00 | 0.45 | 0.00 | 90 | 1011.7 |
| 20260831114502 | 58 | 50 | 0.0 | 0.0 | 0.00 | 0.45 | 0.00 | 90 | 1011.6 |
| 20260831113000 | 58 | 50 | 0.0 | 0.0 | 0.00 | 0.45 | 0.00 | 90 | 1011.7 |
| 20260831111600 | 58 | 50 | 0.0 | 0.0 | 0.00 | 0.45 | 0.00 | 90 | 1011.6 |
| 20260831110058 | 59 | 50 | 0.0 | 1.0 | 0.00 | 0.45 | 0.00 | 90 | 1011.5 |
| 20260831104557 | 59 | 50 | 0.0 | 1.0 | 0.00 | 0.45 | 0.00 | 90 | 1011.7 |
| 20260831103103 | 59 | 50 | 0.0 | 0.0 | 0.00 | 0.45 | 0.00 | 89 | 1011.7 |
| 20260831101554 | 60 | 50 | 0.0 | 1.0 | 0.00 | 0.45 | 0.00 | 89 | 1011.6 |
| 20260831100052 | 60 | 50 | 0.0 | 0.0 | 0.00 | 0.45 | 0.00 | 89 | 1011.5 |
| 20260831094557 | 60 | 50 | 0.0 | 0.0 | 0.00 | 0.45 | 0.00 | 89 | 1011.4 |
| 20260831093050 | 60 | 50 | 0.0 | 1.0 | 0.00 | 0.45 | 0.00 | 89 | 1011.4 |
| 20260831091550 | 60 | 50 | 0.0 | 2.0 | 0.00 | 0.45 | 0.00 | 89 | 1011.4 |
| 20260831090056 | 60 | 47 | 0.0 | 1.0 | 0.00 | 0.45 | 0.00 | 89 | 1011.2 |
| 20260831084547 | 60 | 47 | 0.0 | 1.0 | 0.00 | 0.45 | 0.00 | 89 | 1011.0 |
| 20260831083049 | 60 | 47 | 0.0 | 1.0 | 0.00 | 0.45 | 0.00 | 88 | 1011.2 |
| 20260831081544 | 60 | 47 | 0.0 | 0.0 | 0.00 | 0.45 | 0.00 | 87 | 1011.0 |
| 20260831080042 | 60 | 47 | 0.0 | 3.0 | 0.00 | 0.45 | 0.00 | 87 | 1011.0 |
| 20260831074540 | 61 | 47 | 1.0 | 4.0 | 0.00 | 0.45 | 0.00 | 86 | 1010.7 |
| 20260831073038 | 61 | 51 | 2.0 | 4.0 | 0.00 | 0.45 | 0.00 | 85 | 1010.7 |
| 20260831071543 | 62 | 38 | 0.0 | 3.0 | 0.00 | 0.45 | 0.00 | 84 | 1010.8 |
| 20260831070034 | 62 | 38 | 0.0 | 0.0 | 0.00 | 0.45 | 0.00 | 84 | 1010.8 |
| 20260831064533 | 62 | 38 | 0.0 | 0.0 | 0.00 | 0.45 | 0.00 | 84 | 1010.9 |
| 20260831063031 | 62 | 38 | 0.0 | 0.0 | 0.00 | 0.45 | 0.00 | 83 | 1010.9 |
| 20260831061532 | 62 | 37 | 0.0 | 1.0 | 0.00 | 0.45 | 0.00 | 83 | 1010.8 |
| 20260831060058 | 62 | 29 | 0.0 | 0.0 | 0.00 | 0.45 | 0.00 | 82 | 1010.8 |
| 20260831054558 | 63 | 28 | 0.0 | 0.0 | 0.00 | 0.45 | 0.45 | 82 | 1010.8 |
| 20260831053057 | 63 | 28 | 0.0 | 1.0 | 0.00 | 0.45 | 0.45 | 83 | 1010.4 |
| 20260831051601 | 62 | 29 | 0.0 | 1.0 | 0.00 | 0.45 | 0.45 | 83 | 1010.5 |
| 20260831050055 | 63 | 29 | 0.0 | 1.0 | 0.00 | 0.45 | 0.45 | 83 | 1010.4 |
| 20260831044606 | 63 | 29 | 0.0 | 1.0 | 0.00 | 0.45 | 0.45 | 82 | 1010.5 |
| 20260831043052 | 63 | 29 | 1.0 | 4.0 | 0.00 | 0.45 | 0.45 | 82 | 1010.5 |
| 20260831041553 | 63 | 348 | 4.0 | 6.0 | 0.00 | 0.45 | 0.45 | 81 | 1010.6 |
| 20260831040052 | 64 | 53 | 0.0 | 1.0 | 0.00 | 0.45 | 0.45 | 79 | 1010.5 |
| 20260831034551 | 64 | 53 | 0.0 | 1.0 | 0.00 | 0.45 | 0.45 | 78 | 1010.5 |
| 20260831033048 | 65 | 53 | 0.0 | 1.0 | 0.00 | 0.45 | 0.45 | 78 | 1010.1 |
| 20260831031546 | 65 | 53 | 0.0 | 2.0 | 0.00 | 0.45 | 0.45 | 78 | 1009.9 |
| 20260831030045 | 65 | 53 | 0.0 | 2.0 | 0.00 | 0.45 | 0.45 | 76 | 1009.4 |
| 20260831024545 | 65 | 53 | 3.0 | 6.0 | 0.00 | 0.45 | 0.45 | 75 | 1008.9 |
| 20260831023044 | 65 | 30 | 4.0 | 6.0 | 0.00 | 0.45 | 0.45 | 76 | 1008.8 |
| 20260831021513 | 65 | 51 | 1.0 | 5.0 | 0.00 | 0.45 | 0.45 | 80 | 1008.9 |
| 20260831020012 | 65 | 319 | 0.0 | 0.0 | 0.00 | 0.45 | 0.45 | 80 | 1008.4 |
| 20260831013004 | 65 | 320 | 0.0 | 2.0 | 0.00 | 0.45 | 0.45 | 79 | 1007.9 |
| 20260831011505 | 65 | 318 | 3.0 | 5.0 | 0.00 | 0.45 | 0.45 | 79 | 1008.0 |
| 20260831010002 | 66 | 323 | 2.0 | 6.0 | 0.00 | 0.45 | 0.45 | 77 | 1008.5 |
| 20260831004502 | 67 | 19 | 3.0 | 9.0 | 0.00 | 0.45 | 0.45 | 75 | 1008.7 |
| 20260831003006 | 68 | 11 | 14.0 | 20.0 | 0.00 | 0.45 | 0.45 | 69 | 1009.7 |
| 20260831001601 | 68 | 323 | 0.0 | 2.0 | 0.00 | 0.45 | 0.45 | 75 | 1010.0 |
| 20260831000100 | 68 | 17 | 3.0 | 9.0 | 0.00 | 0.45 | 0.45 | 74 | 1008.7 |
| 20260830234559 | 69 | 341 | 5.0 | 9.0 | 0.00 | 0.45 | 0.45 | 73 | 1008.2 |
| 20260830233105 | 69 | 49 | 8.0 | 11.0 | 0.01 | 0.45 | 0.45 | 73 | 1007.8 |
| 20260830231559 | 68 | 197 | 0.0 | 2.0 | 0.01 | 0.45 | 0.45 | 78 | 1008.2 |
| 20260830230057 | 68 | 77 | 0.0 | 1.0 | 0.01 | 0.45 | 0.45 | 82 | 1007.7 |